Location: Beetenbrück
(52.8113°N, 9.5946°E)
Time: 22:20:07
(UTC+00:00)

Aureole 3 - Pass Details

Date: 14 April 2026
Orbit: 372 x 1025 km, 82.5° (Epoch: 12 May)

Event Time Altitude Azimuth Distance (km) Brightness Sun altitude
Rises 19:23:21 0° 355° (N) 2,715 7.4 -9.7°
Reaches altitude 10° 19:25:28 10° 3° (N) 1,912 6.5 -10.0°
Maximum altitude 19:29:28 39° 74° (ENE) 1,000 4.3 -10.5°
Enters shadow 19:33:30 14° 139° (SE) 2,024 5.6 -11.0°
